This is the latest recevied weather packets stored in our database for station/object KF4UQS-14. If no packets are shown the sender has not sent any weather packets the latest 10 day(s).
| Time | Temp. | Humidity | Pressure | Rain* | Wind** | Luminosity | Snow |
|---|---|---|---|---|---|---|---|
| 1777866955 | 10.56° C | 79% | 1018.7 hPa | 0 mm | - | 0 W/m² | - |
| 1777866651 | 10.56° C | 79% | 1018.7 hPa | 0 mm | - | 0 W/m² | - |
| 1777866349 | 10.56° C | 79% | 1018.6 hPa | 0 mm | - | 0 W/m² | - |
| 1777866046 | 10.56° C | 78% | 1018.5 hPa | 0 mm | - | 0 W/m² | - |
| 1777865744 | 10.56° C | 78% | 1018.7 hPa | 0 mm | - | 0 W/m² | - |
| 1777865441 | 10.56° C | 78% | 1018.7 hPa | 0 mm | - | 0 W/m² | - |
| 1777865138 | 10.56° C | 78% | 1018.5 hPa | 0 mm | - | 0 W/m² | - |
| 1777864835 | 10.56° C | 77% | 1018.7 hPa | 0 mm | - | 0 W/m² | - |
| 1777864532 | 10.56° C | 77% | 1018.7 hPa | 0 mm | - | 0 W/m² | - |
| 1777864228 | 10.56° C | 77% | 1018.6 hPa | 0 mm | - | 0 W/m² | - |
| 1777863926 | 10.56° C | 76% | 1018.5 hPa | 0 mm | - | 0 W/m² | - |
| 1777863621 | 11.11° C | 75% | 1018.7 hPa | 0 mm | - | 0 W/m² | - |
| 1777863319 | 10.56° C | 75% | 1018.8 hPa | 0 mm | - | 0 W/m² | - |
| 1777863015 | 10.56° C | 75% | 1018.8 hPa | 0 mm | - | 0 W/m² | - |
| 1777862713 | 10.56° C | 75% | 1018.9 hPa | 0 mm | - | 0 W/m² | - |
| 1777862409 | 10.56° C | 75% | 1018.8 hPa | 0 mm | - | 0 W/m² | - |
| 1777862106 | 10.56° C | 76% | 1018.7 hPa | 0 mm | - | 0 W/m² | - |
| 1777861802 | 10.56° C | 75% | 1018.7 hPa | 0 mm | - | 0 W/m² | - |
| 1777861498 | 10° C | 75% | 1018.9 hPa | 0 mm | - | 0 W/m² | - |
| 1777861195 | 10° C | 76% | 1018.8 hPa | 0 mm | - | 0 W/m² | - |
| 1777860892 | 9.44° C | 78% | 1018.9 hPa | 0 mm | - | 0 W/m² | - |
| 1777860589 | 8.89° C | 82% | 1018.8 hPa | 0 mm | - | 0 W/m² | - |
| 1777860285 | 8.89° C | 81% | 1018.8 hPa | 0 mm | - | 0 W/m² | - |
| 1777859982 | 8.89° C | 79% | 1018.6 hPa | 0 mm | - | 0 W/m² | - |
| 1777859678 | 8.89° C | 79% | 1018.8 hPa | 0 mm | - | 0 W/m² | - |
* Rain latest hour (hover to see other rain measurements)
** Current wind speed in m/s (hover to see current wind gust speed)